Weather History for Mountain Home, ID

Change the Weather History Date:

Thursday, August 22, 2013

  Actual Average Record
Temperature  
Mean Temperature 78 °F 73 °F  
Max Temperature 95 °F 90 °F 109 °F (1969)
Min Temperature 61 °F 55 °F 35 °F (1918)
Degree Days  
Heating Degree Days 0 0  
Month to date heating degree days 0 0  
Cooling Degree Days 13 9  
Month to date cooling degree days 267 245  
Growing Degree Days 28 (Base 50)    
Moisture  
Dew Point 48 °F    
Average Humidity 37    
Maximum Humidity 58    
Minimum Humidity 17    
Precipitation  
Precipitation T in 0.00 in 1.55 in (1961)
Month to date precipitation 0.06 0.08  
Sea Level Pressure  
Sea Level Pressure 29.89 in    
Wind  
Wind Speed 8 mph (East)    
Max Wind Speed 16 mph    
Max Gust Speed -    
Visibility 10 miles    
Events Rain , Thunderstorm    
T = Trace of Precipitation, MM = Missing Value Source: NWS Daily Summary

Daily Weather History Graph

Daily Weather History Graph

Search for Another Location

Airport:

Trip Planner

Search our weather history database for the weather conditions in past years. The results will help you decide how hot, cold, wet, or windy it might be!

Date:

Astronomy

Aug. 22, 2013 Rise Set
Actual Time 6:57 AM MDT 8:34 PM MDT
Civil Twilight 6:27 AM MDT 9:04 PM MDT
Nautical Twilight 5:50 AM MDT 9:40 PM MDT
Astronomical Twilight 5:11 AM MDT 10:19 PM MDT
Moon 9:15 PM MDT (8/22) 8:55 AM MDT (8/22)
Length of Visible Light 14h 37m
Length of Day
13h 37m
Waning Gibbous, 96% of the Moon is Illuminated
Aug 22
Waning Gibbous
Aug 28
Last Quarter
Sep 5
New
Sep 12
First Quarter
Sep 19
Full

Hourly Weather History & Observations

Time (MDT) Temp. Dew Point Humidity Pressure Visibility Wind Dir Wind Speed Gust Speed Precip Events Conditions
12:58 AM 69.6 °F 45.7 °F 42% 29.93 in 10.0 mi NE 4.6 mph - N/A   Clear
1:58 AM 66.0 °F 47.8 °F 52% 29.95 in 10.0 mi East 5.8 mph - N/A   Mostly Cloudy
2:58 AM 66.7 °F 46.8 °F 49% 29.94 in 10.0 mi East 8.1 mph - N/A   Partly Cloudy
3:58 AM 67.5 °F 45.1 °F 45% 29.94 in 10.0 mi East 8.1 mph - N/A   Scattered Clouds
4:58 AM 67.1 °F 46.8 °F 48% 29.94 in 10.0 mi East 4.6 mph - N/A   Mostly Cloudy
5:58 AM 65.8 °F 45.3 °F 47% 29.92 in 10.0 mi East 6.9 mph - N/A   Clear
6:58 AM 62.4 °F 45.3 °F 54% 29.94 in 10.0 mi East 8.1 mph - N/A   Clear
7:58 AM 62.1 °F 46.9 °F 58% 29.97 in 10.0 mi ESE 5.8 mph - N/A   Clear
8:58 AM 73.9 °F 50.5 °F 44% 29.95 in 10.0 mi ESE 8.1 mph - N/A   Clear
9:58 AM 78.4 °F 50.9 °F 38% 29.96 in 10.0 mi ESE 12.7 mph - N/A   Clear
10:58 AM 82.9 °F 49.6 °F 31% 29.94 in 10.0 mi ESE 16.1 mph - N/A   Clear
11:58 AM 86.2 °F 49.8 °F 28% 29.92 in 10.0 mi ESE 13.8 mph - N/A   Clear
12:58 PM 90.0 °F 48.9 °F 24% 29.88 in 10.0 mi ESE 12.7 mph - N/A   Partly Cloudy
1:58 PM 91.6 °F 46.8 °F 21% 29.86 in 10.0 mi ESE 9.2 mph - N/A   Scattered Clouds
2:58 PM 92.3 °F 45.1 °F 20% 29.83 in 10.0 mi East 11.5 mph - N/A   Scattered Clouds
3:23 PM 93.2 °F 44.6 °F 19% 29.90 in 10.0 mi East 13.8 mph - N/A   Mostly Cloudy
3:58 PM 94.8 °F 43.7 °F 17% 29.79 in 10.0 mi ESE 12.7 mph - N/A Thunderstorm Mostly Cloudy
4:03 PM 93.2 °F 44.6 °F 19% 29.88 in 10.0 mi East 10.4 mph - N/A Rain , Thunderstorm Light Thunderstorms and Rain
4:13 PM 93.2 °F 44.6 °F 19% 29.88 in 10.0 mi East 10.4 mph - N/A   Scattered Clouds
7:58 PM 82.6 °F 50.4 °F 33% 29.77 in 10.0 mi NNW 12.7 mph - N/A   Clear
8:58 PM 75.2 °F 49.3 °F 40% 29.78 in 10.0 mi WNW 5.8 mph - N/A   Clear
9:58 PM 72.9 °F 53.1 °F 50% 29.79 in 10.0 mi WNW 9.2 mph - N/A   Mostly Cloudy
10:58 PM 74.1 °F 48.7 °F 41% 29.80 in 10.0 mi NW 9.2 mph - N/A   Clear
11:58 PM 73.0 °F 53.8 °F 51% 29.80 in 10.0 mi NNW 16.1 mph - N/A   Clear